SNNL weather

Hospital de Olhos de Minas Gerais Heliport
Nova Lima, Minas Gerais, Brazil

Public forecast

Using degrees Celsius for public forecast. Weather courtesy of forecast.io.

Closest aviation weather report (METAR) to Hospital de Olhos de Minas Gerais Heliport

Closest report is Carlos Prates Airport, 5.0 nm (9.3 km) NNW. Retrieved 2020/06/06 11:00 UTC (1 hour ago):

SBPR 061100Z 11005KT CAVOK 19/11 Q1025

Closest aviation forecast (TAF) to Hospital de Olhos de Minas Gerais Heliport

Forecast is more than 12 hours old.

Closest forecast is Pampulha - Carlos Drummond de Andrade Airport, 7.8 nm (14.5 km) N. Retrieved 2012/03/26 18:12 UTC (8 years ago):

TAF SBBH 261639Z 2618/2706 09005KT 9999 SCT030 TX28/2618Z TN20/2705Z PROB30 2619/2624 8000 TSRA BKN035 FEW045CB RMK PGG